2022-050B (52510 NORAD) Tracking and Keplerian Element Data

This shows tracking and keplerian element data for the satellite.

Feedback or suggestion? Click here.




ElementValue
Catalog52510
Name2022-050B
Epoch Orbit334
Epoch Day150.70386563
Epoch Year2022
RAAN317.2553
Inclination41.4537
Eccentricity0.0009333
Argument of Perigee298.8573
Mean Anonmoly128.5828
Mean Motion16.49408938
Decay Rate0.28512381
L11 52510U 22050B 22150.70386563 .28512381 83776-5 33163-3 0 9995
L22 52510 41.4537 317.2553 0009333 298.8573 128.5828 16.49408938 3341

Live tracking and technical data element details for 2022-050B (NORAD 52510). 2022-050B can be tracked NOW for your location showing map with azimuth and elevation plus other details from your city location.

Track the satellite on the map from your city or location and see movement details for azimuth, elevation, latitude, longitude, range, height, and movement on the map or in text.







IsCatalogInMostPopularTable: catalog: 52510, numindb: 1
Update: records affected: 1



GetName: 52510 2022-050B

Hit Count: updated at: Sat, 25 Jun 2022 04:31:35 GMT